�N����,����,�g�[���i���ԁj���x,�g�[�����x,��g�[���i���ցj���x,����
 2004/11/01, 0:00,21.8,76,19.7,19.7
 2004/11/01, 0:15,21.7,74,19.9,19.9
 2004/11/01, 0:30,21.5,74,20.1,20.1
 2004/11/01, 0:45,21.4,74,20.2,20.2
 2004/11/01, 1:00,21.4,74,20.3,20.3
 2004/11/01, 1:15,21.3,74,20.3,20.3
 2004/11/01, 1:30,21.2,74,20.3,20.3
 2004/11/01, 1:45,21.1,74,20.3,20.3
 2004/11/01, 2:00,21.1,74,20.2,20.2
 2004/11/01, 2:15,21,74,20.2,20.2
 2004/11/01, 2:30,21,74,20.2,20.2
 2004/11/01, 2:45,21,74,20.2,20.2
 2004/11/01, 3:00,20.8,75,20.1,20.1
 2004/11/01, 3:15,20.9,74,20.1,20.1
 2004/11/01, 3:30,20.8,75,20.1,20.1
 2004/11/01, 3:45,20.8,75,20.1,20.1
 2004/11/01, 4:00,20.7,75,20.1,20.1
 2004/11/01, 4:15,20.7,75,20,20
 2004/11/01, 4:30,20.7,75,20,20
 2004/11/01, 4:45,20.7,75,20,20
 2004/11/01, 5:00,20.7,75,20,20
 2004/11/01, 5:15,20.6,75,20,20
 2004/11/01, 5:30,20.5,75,19.9,19.9
 2004/11/01, 5:45,20.6,75,19.9,19.9
 2004/11/01, 6:00,20.6,76,19.9,19.9
 2004/11/01, 6:15,20.6,76,19.9,19.9
 2004/11/01, 6:30,20.5,76,19.9,19.9
 2004/11/01, 6:45,20.6,76,19.9,19.9
 2004/11/01, 7:00,20.8,76,19.9,19.9
 2004/11/01, 7:15,20.9,75,20.1,20.1
 2004/11/01, 7:30,21,75,20.2,20.2
 2004/11/01, 7:45,21.1,75,20.3,20.3
 2004/11/01, 8:00,21.1,75,20.6,20.6
 2004/11/01, 8:15,21.1,75,20.6,20.6
 2004/11/01, 8:30,21,75,20.7,20.7
 2004/11/01, 8:45,21,75,20.6,20.6
 2004/11/01, 9:00,20.9,75,20.4,20.4
 2004/11/01, 9:15,20.8,74,20.3,20.3
 2004/11/01, 9:30,20.8,74,20.3,20.3
 2004/11/01, 9:45,20.8,74,20.2,20.2
 2004/11/01,10:00,21,74,20.2,20.2
 2004/11/01,10:15,21.1,74,20.2,20.2
 2004/11/01,10:30,21.2,73,20.2,20.2
 2004/11/01,10:45,21.3,73,20.2,20.2
 2004/11/01,11:00,21.2,73,20.2,20.2
 2004/11/01,11:15,21.3,74,20.2,20.2
 2004/11/01,11:30,21.3,74,20.2,20.2
 2004/11/01,11:45,21.2,74,20.2,20.2
 2004/11/01,12:00,21.4,75,20.3,20.3
 2004/11/01,12:15,21.6,74,20.4,20.4
 2004/11/01,12:30,21.6,74,20.4,20.4
 2004/11/01,12:45,21.7,73,20.5,20.5
 2004/11/01,13:00,21.5,73,20.5,20.5
 2004/11/01,13:15,21.6,73,20.5,20.5
 2004/11/01,13:30,21.6,73,20.5,20.5
 2004/11/01,13:45,21.9,73,20.6,20.6
 2004/11/01,14:00,22.3,75,20.8,20.8
 2004/11/01,14:15,21.8,67,20.5,20.5
 2004/11/01,14:30,21.7,67,20.6,20.6
 2004/11/01,14:45,21.4,66,20.6,20.6
 2004/11/01,15:00,21.6,66,20.6,20.6
 2004/11/01,15:15,21.5,66,20.6,20.6
 2004/11/01,15:30,21.3,66,20.5,20.5
 2004/11/01,15:45,21.3,67,20.4,20.4
 2004/11/01,16:00,20.9,68,20.5,20.5
 2004/11/01,16:15,20.7,68,20.4,20.4
 2004/11/01,16:30,20.4,68,20.3,20.3
 2004/11/01,16:45,20.3,69,20.3,20.3
 2004/11/01,17:00,21,70,20.4,20.4
 2004/11/01,17:15,21,70,20.4,20.4
 2004/11/01,17:30,21.1,70,20.4,20.4
 2004/11/01,17:45,21.1,70,20.4,20.4
 2004/11/01,18:00,21.2,71,20.4,20.4
 2004/11/01,18:15,21.3,71,20.4,20.4
 2004/11/01,18:30,21.4,71,20.4,20.4
 2004/11/01,18:45,21.4,71,20.4,20.4
 2004/11/01,19:00,21.4,71,20.4,20.4
 2004/11/01,19:15,21.5,71,20.4,20.4
 2004/11/01,19:30,21.6,72,20.5,20.5
 2004/11/01,19:45,21.9,71,20.5,20.5
 2004/11/01,20:00,21.9,70,20.5,20.5
 2004/11/01,20:15,22,70,20.6,20.6
 2004/11/01,20:30,22.1,70,20.6,20.6
 2004/11/01,20:45,22,71,20.6,20.6
 2004/11/01,21:00,22.2,70,20.6,20.6
 2004/11/01,21:15,22.2,71,20.8,20.8
 2004/11/01,21:30,22.3,71,20.7,20.7
 2004/11/01,21:45,22.4,71,20.6,20.6
 2004/11/01,22:00,22.5,71,20.5,20.5
 2004/11/01,22:15,22.6,71,20.5,20.5
 2004/11/01,22:30,22.6,71,20.4,20.4
 2004/11/01,22:45,22.6,72,20.4,20.4
 2004/11/01,23:00,22.5,72,20.4,20.4
 2004/11/01,23:15,22.4,72,20.4,20.4
 2004/11/01,23:30,22.2,72,20.3,20.3
 2004/11/01,23:45,22.1,72,20.3,20.3
 2004/11/02, 0:00,21.9,72,20.3,20.3
 2004/11/02, 0:15,21.8,72,20.3,20.3
 2004/11/02, 0:30,21.7,72,20.2,20.2
 2004/11/02, 0:45,21.8,72,20.2,20.2
 2004/11/02, 1:00,21.7,72,20.2,20.2
 2004/11/02, 1:15,21.6,72,20.1,20.1
 2004/11/02, 1:30,21.5,72,20.1,20.1
 2004/11/02, 1:45,21.4,73,20.1,20.1
 2004/11/02, 2:00,21.4,72,20,20
 2004/11/02, 2:15,21.3,72,20,20
 2004/11/02, 2:30,21.2,72,19.9,19.9
 2004/11/02, 2:45,21.1,73,19.9,19.9
 2004/11/02, 3:00,21,73,19.9,19.9
 2004/11/02, 3:15,21,72,19.9,19.9
 2004/11/02, 3:30,20.9,72,19.8,19.8
 2004/11/02, 3:45,20.8,72,19.8,19.8
 2004/11/02, 4:00,20.7,72,19.8,19.8
 2004/11/02, 4:15,20.6,72,19.7,19.7
 2004/11/02, 4:30,20.5,73,19.7,19.7
 2004/11/02, 4:45,20.6,73,19.6,19.6
 2004/11/02, 5:00,20.5,73,19.6,19.6
 2004/11/02, 5:15,20.5,73,19.6,19.6
 2004/11/02, 5:30,20.4,73,19.5,19.5
 2004/11/02, 5:45,20.3,73,19.5,19.5
 2004/11/02, 6:00,20.3,73,19.5,19.5
 2004/11/02, 6:15,20.1,73,19.4,19.4
 2004/11/02, 6:30,20.1,73,19.4,19.4
 2004/11/02, 6:45,21,71,19.5,19.5
 2004/11/02, 7:00,23.2,66,19.6,19.6
 2004/11/02, 7:15,24.9,59,19.7,19.7
 2004/11/02, 7:30,24.2,61,19.6,19.6
 2004/11/02, 7:45,24.1,60,19.7,19.7
 2004/11/02, 8:00,23.7,57,19.9,19.9
 2004/11/02, 8:15,23.3,58,20.1,20.1
 2004/11/02, 8:30,22.9,58,20.2,20.2
 2004/11/02, 8:45,23,59,20.1,20.1
 2004/11/02, 9:00,23,57,20.2,20.2
 2004/11/02, 9:15,23.1,59,20.2,20.2
 2004/11/02, 9:30,23,57,20.3,20.3
 2004/11/02, 9:45,22.6,57,20,20
 2004/11/02,10:00,22.6,57,20.1,20.1
 2004/11/02,10:15,22.3,57,20.1,20.1
 2004/11/02,10:30,22.4,58,20,20
 2004/11/02,10:45,22.4,57,20,20
 2004/11/02,11:00,22.5,56,20.1,20.1
 2004/11/02,11:15,22.6,55,20.1,20.1
 2004/11/02,11:30,22.8,54,20.4,20.4
 2004/11/02,11:45,22.7,52,20.6,20.6
 2004/11/02,12:00,22.9,51,20.8,20.8
 2004/11/02,12:15,23,51,21,21
 2004/11/02,12:30,23,49,20.9,20.9
 2004/11/02,12:45,23.2,49,21,21
 2004/11/02,13:00,23.1,48,21,21
 2004/11/02,13:15,23,43,20.9,20.9
 2004/11/02,13:30,23,45,21.1,21.1
 2004/11/02,13:45,22.9,44,21.2,21.2
 2004/11/02,14:00,22.9,42,21.1,21.1
 2004/11/02,14:15,22.9,42,21.1,21.1
 2004/11/02,14:30,22.9,44,21.3,21.3
 2004/11/02,14:45,23,44,21.5,21.5
 2004/11/02,15:00,22.8,44,21.5,21.5
 2004/11/02,15:15,22.8,44,21.5,21.5
 2004/11/02,15:30,22.8,46,21.5,21.5
 2004/11/02,15:45,22.8,47,21.6,21.6
 2004/11/02,16:00,22.7,47,21.6,21.6
 2004/11/02,16:15,22.7,47,21.6,21.6
 2004/11/02,16:30,22.6,47,21.6,21.6
 2004/11/02,16:45,22.5,47,21.5,21.5
 2004/11/02,17:00,22.5,48,21.4,21.4
 2004/11/02,17:15,22.7,48,21.4,21.4
 2004/11/02,17:30,22.8,48,21.4,21.4
 2004/11/02,17:45,22.7,49,21.4,21.4
 2004/11/02,18:00,22.7,50,21.4,21.4
 2004/11/02,18:15,22.9,51,21.4,21.4
 2004/11/02,18:30,23,52,21.4,21.4
 2004/11/02,18:45,23,52,21.4,21.4
 2004/11/02,19:00,23.1,53,21.4,21.4
 2004/11/02,19:15,23.2,53,21.4,21.4
 2004/11/02,19:30,23.3,53,21.4,21.4
 2004/11/02,19:45,23.3,53,21.4,21.4
 2004/11/02,20:00,23.4,54,21.4,21.4
 2004/11/02,20:15,23.4,54,21.3,21.3
 2004/11/02,20:30,23.5,54,21.2,21.2
 2004/11/02,20:45,23.6,54,21.2,21.2
 2004/11/02,21:00,23.6,54,21.2,21.2
 2004/11/02,21:15,23.5,55,21.5,21.5
 2004/11/02,21:30,23.6,55,21.5,21.5
 2004/11/02,21:45,23.6,56,21.4,21.4
 2004/11/02,22:00,23.7,57,21.3,21.3
 2004/11/02,22:15,23.8,57,21.2,21.2
 2004/11/02,22:30,23.7,57,21.2,21.2
 2004/11/02,22:45,23.5,57,21.3,21.3
 2004/11/02,23:00,23.6,58,21.2,21.2
 2004/11/02,23:15,23.5,58,21.3,21.3
 2004/11/02,23:30,23.3,58,21.4,21.4
 2004/11/02,23:45,23.1,59,21.4,21.4
 2004/11/03, 0:00,23,59,21.3,21.3
 2004/11/03, 0:15,22.9,59,21.2,21.2
 2004/11/03, 0:30,22.9,59,21.2,21.2
 2004/11/03, 0:45,22.8,59,21.1,21.1
 2004/11/03, 1:00,22.8,59,21.1,21.1
 2004/11/03, 1:15,22.7,59,21.1,21.1
 2004/11/03, 1:30,22.6,60,21,21
 2004/11/03, 1:45,22.5,59,21,21
 2004/11/03, 2:00,22.5,60,20.9,20.9
 2004/11/03, 2:15,22.5,60,20.9,20.9
 2004/11/03, 2:30,22.4,60,20.8,20.8
 2004/11/03, 2:45,22.4,60,20.8,20.8
 2004/11/03, 3:00,22.3,60,20.7,20.7
 2004/11/03, 3:15,22.2,60,20.7,20.7
 2004/11/03, 3:30,22.2,61,20.6,20.6
 2004/11/03, 3:45,22.1,61,20.6,20.6
 2004/11/03, 4:00,22.1,61,20.6,20.6
 2004/11/03, 4:15,22,61,20.5,20.5
 2004/11/03, 4:30,22,61,20.5,20.5
 2004/11/03, 4:45,21.9,61,20.4,20.4
 2004/11/03, 5:00,21.7,61,20.4,20.4
 2004/11/03, 5:15,21.8,61,20.4,20.4
 2004/11/03, 5:30,21.6,61,20.4,20.4
 2004/11/03, 5:45,21.6,61,20.3,20.3
 2004/11/03, 6:00,21.6,61,20.3,20.3
 2004/11/03, 6:15,21.4,61,20.2,20.2
 2004/11/03, 6:30,21.4,61,20.2,20.2
 2004/11/03, 6:45,21.3,61,20.2,20.2
 2004/11/03, 7:00,21.5,61,20.1,20.1
 2004/11/03, 7:15,21.6,62,20.1,20.1
 2004/11/03, 7:30,23.1,60,20.1,20.1
 2004/11/03, 7:45,25.3,53,20.1,20.1
 2004/11/03, 8:00,25.4,54,20,20
 2004/11/03, 8:15,25.3,53,20,20
 2004/11/03, 8:30,25,52,20,20
 2004/11/03, 8:45,24.6,47,20.6,20.6
 2004/11/03, 9:00,24,48,20.6,20.6
 2004/11/03, 9:15,23.4,52,20.6,20.6
 2004/11/03, 9:30,23.1,54,20.6,20.6
 2004/11/03, 9:45,23.2,54,20.7,20.7
 2004/11/03,10:00,23.3,55,20.9,20.9
 2004/11/03,10:15,23.2,54,21,21
 2004/11/03,10:30,23.2,55,21.1,21.1
 2004/11/03,10:45,23.3,54,21.2,21.2
 2004/11/03,11:00,23.6,55,21.5,21.5
 2004/11/03,11:15,23.9,54,21.8,21.8
 2004/11/03,11:30,24,54,22,22
 2004/11/03,11:45,24.3,53,22.2,22.2
 2004/11/03,12:00,24.3,48,22,22
 2004/11/03,12:15,24.3,45,21.7,21.7
 2004/11/03,12:30,23.6,34,21.8,21.8
 2004/11/03,12:45,23.7,37,21.8,21.8
 2004/11/03,13:00,23.6,34,21.8,21.8
 2004/11/03,13:15,23.3,37,21.5,21.5
 2004/11/03,13:30,22.9,39,21.2,21.2
 2004/11/03,13:45,22.6,41,21,21
 2004/11/03,14:00,22.2,40,20.9,20.9
 2004/11/03,14:15,22.4,43,20.8,20.8
 2004/11/03,14:30,21.9,40,20.5,20.5
 2004/11/03,14:45,21.2,42,20.4,20.4
 2004/11/03,15:00,21.4,42,20.3,20.3
 2004/11/03,15:15,21.4,43,20.4,20.4
 2004/11/03,15:30,21.6,43,20.5,20.5
 2004/11/03,15:45,21.2,43,20.3,20.3
 2004/11/03,16:00,21.3,43,20.4,20.4
 2004/11/03,16:15,21.4,43,20.5,20.5
 2004/11/03,16:30,21.3,45,20.4,20.4
 2004/11/03,16:45,21.6,45,20.4,20.4
 2004/11/03,17:00,21.7,46,20.5,20.5
 2004/11/03,17:15,21.7,47,20.6,20.6
 2004/11/03,17:30,21.7,48,20.6,20.6
 2004/11/03,17:45,21.8,48,20.7,20.7
 2004/11/03,18:00,21.9,49,20.7,20.7
 2004/11/03,18:15,22,49,20.7,20.7
 2004/11/03,18:30,22,50,20.7,20.7
 2004/11/03,18:45,22.4,52,20.8,20.8
 2004/11/03,19:00,22.5,52,20.9,20.9
 2004/11/03,19:15,22.6,52,21,21
 2004/11/03,19:30,22.7,51,21,21
 2004/11/03,19:45,22.6,51,21,21
 2004/11/03,20:00,22.7,52,21,21
 2004/11/03,20:15,22.8,52,21.1,21.1
 2004/11/03,20:30,22.9,52,21.1,21.1
 2004/11/03,20:45,22.8,52,21.1,21.1
 2004/11/03,21:00,23,53,21,21
 2004/11/03,21:15,23,53,20.9,20.9
 2004/11/03,21:30,22.8,54,20.9,20.9
 2004/11/03,21:45,22.8,55,20.8,20.8
 2004/11/03,22:00,22.8,56,20.9,20.9
 2004/11/03,22:15,23,56,20.9,20.9
 2004/11/03,22:30,22.9,56,20.9,20.9
 2004/11/03,22:45,22.8,57,20.9,20.9
 2004/11/03,23:00,22.7,57,20.9,20.9
 2004/11/03,23:15,22.5,57,20.8,20.8
 2004/11/03,23:30,22.4,56,20.7,20.7
 2004/11/03,23:45,22.3,57,20.7,20.7
 2004/11/04, 0:00,22.2,57,20.6,20.6
 2004/11/04, 0:15,22.1,57,20.5,20.5
 2004/11/04, 0:30,22.1,57,20.4,20.4
 2004/11/04, 0:45,22,57,20.3,20.3
 2004/11/04, 1:00,21.9,57,20.2,20.2
 2004/11/04, 1:15,21.8,57,20.1,20.1
 2004/11/04, 1:30,21.7,57,20.1,20.1
 2004/11/04, 1:45,21.6,58,20,20
 2004/11/04, 2:00,21.8,57,20,20
 2004/11/04, 2:15,21.6,57,19.9,19.9
 2004/11/04, 2:30,21.4,57,19.9,19.9
 2004/11/04, 2:45,21.3,57,19.8,19.8
 2004/11/04, 3:00,21.2,57,19.8,19.8
 2004/11/04, 3:15,21.2,57,19.7,19.7
 2004/11/04, 3:30,21,58,19.7,19.7
 2004/11/04, 3:45,21,58,19.6,19.6
 2004/11/04, 4:00,20.8,58,19.6,19.6
 2004/11/04, 4:15,20.7,58,19.5,19.5
 2004/11/04, 4:30,20.6,58,19.5,19.5
 2004/11/04, 4:45,20.5,58,19.5,19.5
 2004/11/04, 5:00,20.5,58,19.4,19.4
 2004/11/04, 5:15,20.4,58,19.4,19.4
 2004/11/04, 5:30,20.2,59,19.3,19.3
 2004/11/04, 5:45,20.2,59,19.3,19.3
 2004/11/04, 6:00,20.4,59,19.2,19.2
 2004/11/04, 6:15,20.5,58,19.2,19.2
 2004/11/04, 6:30,20.6,59,19.3,19.3
 2004/11/04, 6:45,21.3,57,19.3,19.3
 2004/11/04, 7:00,22.5,53,19.4,19.4
 2004/11/04, 7:15,24.6,48,19.6,19.6
 2004/11/04, 7:30,25.9,45,19.8,19.8
 2004/11/04, 7:45,26,44,19.8,19.8
 2004/11/04, 8:00,25.8,44,19.7,19.7
 2004/11/04, 8:15,25.5,45,19.7,19.7
 2004/11/04, 8:30,24.5,47,19.8,19.8
 2004/11/04, 8:45,24.5,47,19.9,19.9
 2004/11/04, 9:00,24.6,47,20.1,20.1
 2004/11/04, 9:15,24.6,47,20.2,20.2
 2004/11/04, 9:30,24.6,48,20.5,20.5
 2004/11/04, 9:45,24.5,48,20.6,20.6
 2004/11/04,10:00,24.5,48,20.8,20.8
 2004/11/04,10:15,24.7,48,21,21
 2004/11/04,10:30,24.7,48,21.1,21.1
 2004/11/04,10:45,24.5,48,21.3,21.3
 2004/11/04,11:00,24.5,48,21.3,21.3
 2004/11/04,11:15,24.4,48,21.4,21.4
 2004/11/04,11:30,24.5,48,21.5,21.5
 2004/11/04,11:45,24.5,48,21.5,21.5
 2004/11/04,12:00,24.5,49,21.7,21.7
 2004/11/04,12:15,24.5,49,21.8,21.8
 2004/11/04,12:30,24.5,48,21.8,21.8
 2004/11/04,12:45,24.3,48,21.8,21.8
 2004/11/04,13:00,24.3,49,21.8,21.8
 2004/11/04,13:15,24.3,49,21.9,21.9
 2004/11/04,13:30,24.4,49,22,22
 2004/11/04,13:45,24.3,49,22.1,22.1
 2004/11/04,14:00,24.3,49,22.2,22.2
 2004/11/04,14:15,24.2,49,22.2,22.2
 2004/11/04,14:30,24,49,22.2,22.2
 2004/11/04,14:45,24,49,22.2,22.2
 2004/11/04,15:00,23.8,49,22.2,22.2
 2004/11/04,15:15,23.6,48,22.1,22.1
 2004/11/04,15:30,23.4,48,22,22
 2004/11/04,15:45,23.3,49,21.9,21.9
 2004/11/04,16:00,23.2,49,21.8,21.8
 2004/11/04,16:15,23.2,49,21.8,21.8
 2004/11/04,16:30,23,49,21.7,21.7
 2004/11/04,16:45,22.9,50,21.6,21.6
 2004/11/04,17:00,22.9,50,21.6,21.6
 2004/11/04,17:15,22.8,50,21.5,21.5
 2004/11/04,17:30,22.7,50,21.4,21.4
 2004/11/04,17:45,22.9,50,21.7,21.7
 2004/11/04,18:00,22.9,49,21.5,21.5
 2004/11/04,18:15,23,49,21.4,21.4
 2004/11/04,18:30,23,49,21.3,21.3
 2004/11/04,18:45,22.9,48,21.2,21.2
 2004/11/04,19:00,22.9,48,21.1,21.1
 2004/11/04,19:15,23,48,21,21
 2004/11/04,19:30,23,48,20.8,20.8
 2004/11/04,19:45,23.1,48,20.7,20.7
 2004/11/04,20:00,23,48,20.6,20.6
 2004/11/04,20:15,23,47,20.4,20.4
 2004/11/04,20:30,23,47,20.3,20.3
 2004/11/04,20:45,23,47,20.2,20.2
 2004/11/04,21:00,23,47,20.1,20.1
 2004/11/04,21:15,22.9,47,20,20
 2004/11/04,21:30,22.8,47,19.9,19.9
 2004/11/04,21:45,22.7,48,19.9,19.9
 2004/11/04,22:00,22.6,49,19.9,19.9
 2004/11/04,22:15,22.7,50,19.9,19.9
 2004/11/04,22:30,22.5,50,20,20
 2004/11/04,22:45,22.8,51,20,20
 2004/11/04,23:00,22.8,52,19.9,19.9
 2004/11/04,23:15,22.7,52,19.9,19.9
 2004/11/04,23:30,22.5,52,19.8,19.8
 2004/11/04,23:45,22.4,53,19.8,19.8
 2004/11/05, 0:00,22.2,53,19.8,19.8
 2004/11/05, 0:15,22,53,20,20
 2004/11/05, 0:30,22,53,20,20
 2004/11/05, 0:45,21.8,53,20,20
 2004/11/05, 1:00,21.7,53,20,20
 2004/11/05, 1:15,21.6,54,20,20
 2004/11/05, 1:30,21.4,54,20,20
 2004/11/05, 1:45,21.4,54,19.9,19.9
 2004/11/05, 2:00,21.2,54,19.9,19.9
 2004/11/05, 2:15,21.2,55,19.9,19.9
 2004/11/05, 2:30,21,55,19.8,19.8
 2004/11/05, 2:45,20.9,55,19.8,19.8
 2004/11/05, 3:00,20.8,55,19.7,19.7
 2004/11/05, 3:15,20.8,55,19.7,19.7
 2004/11/05, 3:30,20.7,56,19.6,19.6
 2004/11/05, 3:45,20.6,56,19.6,19.6
 2004/11/05, 4:00,20.5,56,19.5,19.5
 2004/11/05, 4:15,20.3,56,19.5,19.5
 2004/11/05, 4:30,20.2,56,19.4,19.4
 2004/11/05, 4:45,20.2,57,19.3,19.3
 2004/11/05, 5:00,20.1,57,19.3,19.3
 2004/11/05, 5:15,20,57,19.3,19.3
 2004/11/05, 5:30,19.9,57,19.2,19.2
 2004/11/05, 5:45,19.9,57,19.1,19.1
 2004/11/05, 6:00,19.6,58,19.1,19.1
 2004/11/05, 6:15,19.5,57,19,19
 2004/11/05, 6:30,19.6,58,19,19
 2004/11/05, 6:45,19.9,58,18.8,18.8
 2004/11/05, 7:00,21.5,54,18.8,18.8
 2004/11/05, 7:15,22.8,49,18.7,18.7
 2004/11/05, 7:30,24,46,18.7,18.7
 2004/11/05, 7:45,23.9,46,18.8,18.8
 2004/11/05, 8:00,23.4,47,18.8,18.8
 2004/11/05, 8:15,23.7,46,18.9,18.9
 2004/11/05, 8:30,22.5,49,19,19
 2004/11/05, 8:45,22.4,49,19.2,19.2
 2004/11/05, 9:00,22.2,50,19.3,19.3
 2004/11/05, 9:15,22.3,50,19.4,19.4
 2004/11/05, 9:30,22.4,50,19.5,19.5
 2004/11/05, 9:45,22.4,51,19.6,19.6
 2004/11/05,10:00,22.5,51,19.7,19.7
 2004/11/05,10:15,22.6,51,19.9,19.9
 2004/11/05,10:30,22.7,51,20,20
 2004/11/05,10:45,22.7,51,20.2,20.2
 2004/11/05,11:00,22.9,51,20.4,20.4
 2004/11/05,11:15,22.9,51,20.5,20.5
 2004/11/05,11:30,23,51,20.7,20.7
 2004/11/05,11:45,23.1,51,20.9,20.9
 2004/11/05,12:00,23.2,50,21.1,21.1
 2004/11/05,12:15,23.3,50,21.3,21.3
 2004/11/05,12:30,23.3,50,21.5,21.5
 2004/11/05,12:45,23.4,50,21.6,21.6
 2004/11/05,13:00,23.4,50,21.7,21.7
 2004/11/05,13:15,23.3,50,21.8,21.8
 2004/11/05,13:30,23.4,50,21.9,21.9
 2004/11/05,13:45,23.3,50,22,22
 2004/11/05,14:00,23.2,50,22,22
 2004/11/05,14:15,23.2,50,21.9,21.9
 2004/11/05,14:30,23.1,50,21.9,21.9
 2004/11/05,14:45,23.1,50,21.9,21.9
 2004/11/05,15:00,23,50,21.9,21.9
 2004/11/05,15:15,23.1,50,22,22
 2004/11/05,15:30,23,50,22,22
 2004/11/05,15:45,23,51,22,22
 2004/11/05,16:00,22.9,51,21.9,21.9
 2004/11/05,16:15,22.8,51,21.8,21.8
 2004/11/05,16:30,22.7,51,21.7,21.7
 2004/11/05,16:45,22.6,49,21.6,21.6
 2004/11/05,17:00,22.4,47,21.6,21.6
 2004/11/05,17:15,22.5,49,21.5,21.5
 2004/11/05,17:30,22.5,50,21.4,21.4
 2004/11/05,17:45,22.6,51,21.4,21.4
 2004/11/05,18:00,22.8,50,21.3,21.3
 2004/11/05,18:15,22.8,49,21.3,21.3
 2004/11/05,18:30,22.7,49,21.2,21.2
 2004/11/05,18:45,22.8,48,21.1,21.1
 2004/11/05,19:00,22.8,48,21,21
 2004/11/05,19:15,22.6,48,21,21
 2004/11/05,19:30,22.7,48,20.9,20.9
 2004/11/05,19:45,22.7,49,20.9,20.9
 2004/11/05,20:00,22.8,49,20.9,20.9
 2004/11/05,20:15,22.8,49,20.9,20.9
 2004/11/05,20:30,22.9,50,20.9,20.9
 2004/11/05,20:45,22.9,51,20.9,20.9
 2004/11/05,21:00,22.7,52,20.9,20.9
 2004/11/05,21:15,22.6,52,20.9,20.9
 2004/11/05,21:30,22.4,52,21.1,21.1
 2004/11/05,21:45,22.3,52,21.2,21.2
 2004/11/05,22:00,22.4,53,21,21
 2004/11/05,22:15,22.5,53,20.9,20.9
 2004/11/05,22:30,22.6,53,20.9,20.9
 2004/11/05,22:45,22.7,53,20.9,20.9
 2004/11/05,23:00,22.6,53,20.8,20.8
 2004/11/05,23:15,22.5,54,20.8,20.8
 2004/11/05,23:30,22.3,54,20.8,20.8
 2004/11/05,23:45,22.2,55,20.8,20.8
 2004/11/06, 0:00,22.1,55,20.8,20.8
 2004/11/06, 0:15,22,55,20.7,20.7
 2004/11/06, 0:30,22,56,20.7,20.7
 2004/11/06, 0:45,21.9,55,20.7,20.7
 2004/11/06, 1:00,21.8,55,20.7,20.7
 2004/11/06, 1:15,21.5,56,20.6,20.6
 2004/11/06, 1:30,21.6,56,20.5,20.5
 2004/11/06, 1:45,21.4,56,20.5,20.5
 2004/11/06, 2:00,21.4,56,20.4,20.4
 2004/11/06, 2:15,21.2,56,20.3,20.3
 2004/11/06, 2:30,21.1,56,20.3,20.3
 2004/11/06, 2:45,21,56,20.2,20.2
 2004/11/06, 3:00,20.9,56,20.1,20.1
 2004/11/06, 3:15,20.9,56,20.1,20.1
 2004/11/06, 3:30,20.8,56,20,20
 2004/11/06, 3:45,20.7,57,19.9,19.9
 2004/11/06, 4:00,20.6,57,19.9,19.9
 2004/11/06, 4:15,20.6,57,19.8,19.8
 2004/11/06, 4:30,20.4,57,19.8,19.8
 2004/11/06, 4:45,20.4,57,19.7,19.7
 2004/11/06, 5:00,20.3,57,19.6,19.6
 2004/11/06, 5:15,20.2,57,19.6,19.6
 2004/11/06, 5:30,20.2,57,19.5,19.5
 2004/11/06, 5:45,20.1,58,19.5,19.5
 2004/11/06, 6:00,20,58,19.4,19.4
 2004/11/06, 6:15,19.9,58,19.4,19.4
 2004/11/06, 6:30,19.9,58,19.3,19.3
 2004/11/06, 6:45,19.7,58,19.3,19.3
 2004/11/06, 7:00,19.7,59,19.2,19.2
 2004/11/06, 7:15,19.9,60,19.3,19.3
 2004/11/06, 7:30,21,59,19.4,19.4
 2004/11/06, 7:45,22.2,55,19.5,19.5
 2004/11/06, 8:00,22.4,53,19.5,19.5
 2004/11/06, 8:15,22.7,53,19.5,19.5
 2004/11/06, 8:30,22.3,54,19.6,19.6
 2004/11/06, 8:45,22.3,54,19.6,19.6
 2004/11/06, 9:00,22.4,55,19.7,19.7
 2004/11/06, 9:15,22.6,54,19.8,19.8
 2004/11/06, 9:30,22.6,55,19.9,19.9
 2004/11/06, 9:45,22.6,54,20.1,20.1
 2004/11/06,10:00,22.8,54,20.4,20.4
 2004/11/06,10:15,22.9,53,20.5,20.5
 2004/11/06,10:30,23,53,20.7,20.7
 2004/11/06,10:45,23.1,53,20.9,20.9
 2004/11/06,11:00,23.3,52,21.1,21.1
 2004/11/06,11:15,23.3,52,21.3,21.3
 2004/11/06,11:30,23.5,52,21.4,21.4
 2004/11/06,11:45,23.6,52,21.5,21.5
 2004/11/06,12:00,23.6,52,21.6,21.6
 2004/11/06,12:15,23.7,51,21.7,21.7
 2004/11/06,12:30,23.8,51,21.8,21.8
 2004/11/06,12:45,23.8,50,21.9,21.9
 2004/11/06,13:00,23.7,46,21.7,21.7
 2004/11/06,13:15,23.4,43,21.6,21.6
 2004/11/06,13:30,23.2,43,21.2,21.2
 2004/11/06,13:45,22.7,42,21,21
 2004/11/06,14:00,22.9,44,21,21
 2004/11/06,14:15,23,44,20.9,20.9
 2004/11/06,14:30,23.2,45,20.9,20.9
 2004/11/06,14:45,23.4,45,20.9,20.9
 2004/11/06,15:00,23.4,46,21,21
 2004/11/06,15:15,23.5,46,21,21
 2004/11/06,15:30,23.4,46,21,21
 2004/11/06,15:45,23.4,46,21.1,21.1
 2004/11/06,16:00,23.3,46,21.3,21.3
 2004/11/06,16:15,23.2,46,21.3,21.3
 2004/11/06,16:30,23.1,46,21.3,21.3
 2004/11/06,16:45,23.2,47,21.2,21.2
 2004/11/06,17:00,23.2,47,21.2,21.2
 2004/11/06,17:15,23,48,21.2,21.2
 2004/11/06,17:30,23,48,21.1,21.1
 2004/11/06,17:45,22.8,48,21.1,21.1
 2004/11/06,18:00,22.7,49,21,21
 2004/11/06,18:15,22.6,49,21,21
 2004/11/06,18:30,22.6,49,20.9,20.9
 2004/11/06,18:45,22.6,49,20.9,20.9
 2004/11/06,19:00,22.6,50,21.1,21.1
 2004/11/06,19:15,22.7,51,21,21
 2004/11/06,19:30,22.8,50,20.9,20.9
 2004/11/06,19:45,22.9,50,20.9,20.9
 2004/11/06,20:00,22.9,50,20.8,20.8
 2004/11/06,20:15,22.8,50,20.8,20.8
 2004/11/06,20:30,22.9,50,20.7,20.7
 2004/11/06,20:45,23,51,20.6,20.6
 2004/11/06,21:00,23.1,51,20.6,20.6
 2004/11/06,21:15,23.2,52,20.6,20.6
 2004/11/06,21:30,23.2,52,20.5,20.5
 2004/11/06,21:45,23.3,52,20.5,20.5
 2004/11/06,22:00,23.3,53,20.4,20.4
 2004/11/06,22:15,23.3,53,20.4,20.4
 2004/11/06,22:30,23.2,53,20.4,20.4
 2004/11/06,22:45,23,53,20.4,20.4
 2004/11/06,23:00,23,53,20.4,20.4
 2004/11/06,23:15,22.9,54,20.3,20.3
 2004/11/06,23:30,22.8,54,20.4,20.4
 2004/11/06,23:45,22.6,55,20.4,20.4
 2004/11/07, 0:00,22.5,55,20.5,20.5
 2004/11/07, 0:15,22.5,55,20.4,20.4
 2004/11/07, 0:30,22.4,55,20.4,20.4
 2004/11/07, 0:45,22.3,55,20.3,20.3
 2004/11/07, 1:00,22.2,55,20.3,20.3
 2004/11/07, 1:15,22.1,56,20.2,20.2
 2004/11/07, 1:30,21.9,56,20.1,20.1
 2004/11/07, 1:45,21.9,56,20,20
 2004/11/07, 2:00,21.8,56,20,20
 2004/11/07, 2:15,21.8,56,19.9,19.9
 2004/11/07, 2:30,21.7,56,19.9,19.9
 2004/11/07, 2:45,21.6,56,19.8,19.8
 2004/11/07, 3:00,21.4,56,19.8,19.8
 2004/11/07, 3:15,21.4,57,19.7,19.7
 2004/11/07, 3:30,21.2,57,19.7,19.7
 2004/11/07, 3:45,21.2,57,19.6,19.6
 2004/11/07, 4:00,21.1,57,19.6,19.6
 2004/11/07, 4:15,20.9,57,19.5,19.5
 2004/11/07, 4:30,21,57,19.5,19.5
 2004/11/07, 4:45,20.9,57,19.4,19.4
 2004/11/07, 5:00,20.8,58,19.4,19.4
 2004/11/07, 5:15,20.6,58,19.3,19.3
 2004/11/07, 5:30,20.5,58,19.3,19.3
 2004/11/07, 5:45,20.5,58,19.2,19.2
 2004/11/07, 6:00,20.5,58,19.2,19.2
 2004/11/07, 6:15,20.4,58,19.1,19.1
 2004/11/07, 6:30,20.2,58,19.1,19.1
 2004/11/07, 6:45,20.2,58,19,19
 2004/11/07, 7:00,20.2,59,19,19
 2004/11/07, 7:15,20.1,59,18.9,18.9
 2004/11/07, 7:30,21.5,57,19,19
 2004/11/07, 7:45,23,54,19.1,19.1
 2004/11/07, 8:00,22.9,48,19.3,19.3
 2004/11/07, 8:15,23.2,47,19.4,19.4
 2004/11/07, 8:30,22.6,48,19.3,19.3
 2004/11/07, 8:45,22.2,49,19.4,19.4
 2004/11/07, 9:00,22,50,19.5,19.5
 2004/11/07, 9:15,22,50,19.5,19.5
 2004/11/07, 9:30,22.1,50,19.7,19.7
 2004/11/07, 9:45,22.3,51,19.8,19.8
 2004/11/07,10:00,22.6,51,20,20
 2004/11/07,10:15,22.7,50,20.3,20.3
 2004/11/07,10:30,22.7,49,20,20
 2004/11/07,10:45,22.8,49,19.9,19.9
 2004/11/07,11:00,22.6,49,19.6,19.6
 2004/11/07,11:15,23,50,19.6,19.6
 2004/11/07,11:30,23.2,49,19.6,19.6
 2004/11/07,11:45,23.4,48,19.7,19.7
 2004/11/07,12:00,23.5,48,19.8,19.8
 2004/11/07,12:15,23.6,48,19.9,19.9
 2004/11/07,12:30,23.7,48,20.2,20.2
 2004/11/07,12:45,23.5,47,20.2,20.2
 2004/11/07,13:00,23.3,48,20.4,20.4
 2004/11/07,13:15,23.2,48,20.5,20.5
 2004/11/07,13:30,23,47,20.1,20.1
 2004/11/07,13:45,22.7,46,19.8,19.8
 2004/11/07,14:00,22.6,47,19.7,19.7
 2004/11/07,14:15,22.4,46,19.6,19.6
 2004/11/07,14:30,22.4,46,19.6,19.6
 2004/11/07,14:45,22.2,46,19.4,19.4
 2004/11/07,15:00,22.1,46,19.3,19.3
 2004/11/07,15:15,22.2,47,19.3,19.3
 2004/11/07,15:30,22.1,47,19.4,19.4
 2004/11/07,15:45,22.2,48,19.8,19.8
 2004/11/07,16:00,22.2,49,20.1,20.1
 2004/11/07,16:15,22.4,48,20.4,20.4
 2004/11/07,16:30,22.3,49,20.5,20.5
 2004/11/07,16:45,22.2,49,20.5,20.5
 2004/11/07,17:00,22.2,49,20.5,20.5
 2004/11/07,17:15,22.1,48,20.5,20.5
 2004/11/07,17:30,22,49,20.6,20.6
 2004/11/07,17:45,22.3,49,20.5,20.5
 2004/11/07,18:00,22.4,49,20.5,20.5
 2004/11/07,18:15,22.4,49,20.5,20.5
 2004/11/07,18:30,22.3,49,20.5,20.5
 2004/11/07,18:45,22.4,49,20.5,20.5
 2004/11/07,19:00,22.5,51,20.5,20.5
 2004/11/07,19:15,22.6,52,20.6,20.6
 2004/11/07,19:30,22.7,52,20.9,20.9
 2004/11/07,19:45,22.8,52,21,21
 2004/11/07,20:00,22.9,53,20.9,20.9
 2004/11/07,20:15,22.9,53,20.9,20.9